Hourly Weather Roundup
Issued by NWS Central Illinois

Home | Current Version | Previous Version | Text Only | Print | Product List | Glossary On
Versions: 1 2 3 4 5 6 7 8 9 10 11 12 13 14 15 16 17 18 19 20 21 22 23 24 25 26 27 28 29 30 31 32 33 34 35 36 37 38 39 40 41 42 43 44 45 46 47 48 49 50
000
NZUS43 KILX 290610
HWRILX

AREA WEATHER ROUNDUP
NATIONAL WEATHER SERVICE, LINCOLN IL
100 AM CDT WED JUL 29 2015


CITY           SKY/WX    TMP DP  RH WIND       PRES   REMARKS
BLOOMINGTON    PTCLDY    74  72  93 S6        29.96F
6HR MIN TEMP:  74; 6HR MAX TEMP:  78; 6HR PCP: TRACE;

CHAMPAIGN      CLEAR     73  71  93 E5        29.96F
6HR MIN TEMP:  73; 6HR MAX TEMP:  78;

DANVILLE       PTCLDY    72  72  99 CALM      29.94F FOG
6HR MIN TEMP:  72; 6HR MAX TEMP:  81;

DECATUR        CLEAR     75  72  90 CALM      29.95F
6HR MIN TEMP:  73; 6HR MAX TEMP:  79;

EFFINGHAM      MOCLDY    76  73  90 E3        29.98F FOG
FLORA          MOCLDY    75  73  94 CALM      29.98S
6HR MIN TEMP:  75; 6HR MAX TEMP:  90;

GALESBURG      CLOUDY    78  77  96 E5        29.93F HX  82
JACKSONVILLE   CLEAR     82  78  86 S5        29.93S HX  92
6HR MIN TEMP:  82; 6HR MAX TEMP:  92;

LACON          TSTM      74  72  92 SE5       29.94R
6HR MIN TEMP:  74; 6HR MAX TEMP:  79; 6HR PCP:  0.30;

LAWRENCEVILLE  MOCLDY    76  74  93 S5        29.98S
6HR MIN TEMP:  76; 6HR MAX TEMP:  89;

LITCHFIELD     PTCLDY    77  74  90 S7        29.95F
$$


CITY           SKY/WX    TMP DP  RH WIND       PRES   REMARKS
LINCOLN        PTCLDY    76  72  87 CALM      29.94F
6HR MIN TEMP:  76; 6HR MAX TEMP:  82;

MACOMB         MOCLDY    78  77  96 E3        29.96F FOG     HX  81
MATTOON        PTCLDY    77  69  76 S6        29.96F
6HR MIN TEMP:  74; 6HR MAX TEMP:  78;

MT CARMEL AP   MOCLDY    77  72  83 CALM      29.97F
OLNEY-NOBLE AP MOCLDY    73  73 100 CALM      29.98S
PARIS          PTCLDY    72  72  99 CALM      29.97F FOG
6HR MIN TEMP:  72; 6HR MAX TEMP:  82;

PEORIA         MOCLDY    81  71  71 N9G20     29.95F THUNDER HX  85
6HR MIN TEMP:  80; 6HR MAX TEMP:  84;

PONTIAC        MOCLDY    76  72  88 NW8       29.96S
RANTOUL        CLEAR     75  74  95 CALM      29.95F
6HR MIN TEMP:  75; 6HR MAX TEMP:  82;

ROBINSON       MOCLDY    76  75  97 CALM      29.98S
6HR MIN TEMP:  75; 6HR MAX TEMP:  85;

SPRINGFIELD    PTCLDY    81  76  84 S3        29.94F HX  87
6HR MIN TEMP:  81; 6HR MAX TEMP:  87;

TAYLORVILLE    PTCLDY    77  73  88 CALM      29.95F
$$

...REGIONAL REPORTS...


CITY           SKY/WX    TMP DP  RH WIND       PRES   REMARKS
CHICAGO O`HARE CLOUDY    79  73  82 CALM      29.92F HX  82
KANKAKEE       MOCLDY    77  76  96 SE3       29.95F
MOLINE         CLOUDY    77  74  90 CALM      29.91F
MOUNT STERLING NOT AVBL
MOUNT VERNON   MOCLDY    77  70  78 CALM      29.98F
PITTSFIELD     MOCLDY    82  79  89 CALM      29.96S HX  92
QUINCY         PTCLDY    80  78  94 W12G17    29.96R HX  88
ROCKFORD       CLOUDY    75  71  87 CALM      29.94F
$$


CITY           SKY/WX    TMP DP  RH WIND       PRES   REMARKS
BURLINGTON     CLOUDY    77  73  87 NE3       29.93F
CEDAR RAPIDS   LGT RAIN  70  70 100 SW5       29.96F
DES MOINES     LGT RAIN  72  69  90 CALM      30.00R
KIRKSVILLE     CLOUDY    77  66  68 NW10      30.01R
OTTUMWA        TSTM      71  71 100 NW8       29.98R
ST LOUIS       PTCLDY    87  77  72 S8        29.95F HX  99
$$


CITY           SKY/WX    TMP DP  RH WIND       PRES   REMARKS
TERRE HAUTE    PTCLDY    75  73  93 CALM      29.96F
EVANSVILLE     MOCLDY    76  73  91 SW3       29.99R
INDIANAPOLIS   MOCLDY    79  73  82 E3        29.97S HX  82
LAFAYETTE      CLEAR     75  74  96 CALM      29.96F FOG
MADISON        CLOUDY    78  72  81 S3        29.91F HX  80
MILWAUKEE      MOCLDY    76  68  76 CALM      29.92F
$$




USA.gov is the U.S. government's official web portal to all federal, state and local government web resources and services.